Hourly Data Report for January 01, 2003

TORONTO CITY
ONTARIO

43°40'00.000" N
79°24'00.000" W
112.50 m
6158355
71508
XTO

Download Data

Hourly Data (January 2003)
Hourly Data Report for January 1, 2003
TIME
LST
Temp Definition
°C
Dew Point Definition
°C
Rel Hum Definition
%
Precip. Amount Definition
mm

Wind Dir Definition
10's deg

Wind Spd Definition
km/h
Visibility Definition
km
Stn Press Definition
kPa
Hmdx Definition


Wind Chill Definition


Weather Definition


00:00 1.4 -3.9 68     0 LegendMM 100.18     LegendNANA
01:00 1.5 -4.4 65     0 LegendMM 100.23     LegendNANA
02:00 1.5 -4.2 66     0 LegendMM 100.32     LegendNANA
03:00 1.0 -4.7 66     0 LegendMM 100.36     LegendNANA
04:00 0.7 -5.2 65     0 LegendMM 100.43     LegendNANA
05:00
06:00 0.3 -5.4 66     0 LegendMM 100.44     LegendNANA
07:00 0.0 -5.5 66     0 LegendMM 100.44     LegendNANA
08:00 0.0 -5.1 68     0 LegendMM 100.44     LegendNANA
09:00 0.0 -5.1 68     0 LegendMM 100.45     LegendNANA
10:00 -0.2 -6.1 64     0 LegendMM 100.57     LegendNANA
11:00
12:00 -0.3 -6.2 64     0 LegendMM 100.41     LegendNANA
13:00 -0.2 -6.3 63     0 LegendMM 100.37     LegendNANA
14:00 -0.1 -7.0 60     0 LegendMM 100.28     LegendNANA
15:00 -0.4 -7.7 58     0 LegendMM 100.25     LegendNANA
16:00 -0.5 -7.8 58     0 LegendMM 100.22     LegendNANA
17:00 -0.9 -6.9 64     0 LegendMM 100.24     LegendNANA
18:00
19:00 -2.4 -9.8 57     0 LegendMM 100.29     LegendNANA
20:00 -3.4 -11.9 52     0 LegendMM 100.32     LegendNANA
21:00 -4.3 -13.0 51     0 LegendMM 100.31     LegendNANA
22:00 -5.1 -13.3 53     0 LegendMM 100.36     LegendNANA
23:00 -6.0 -13.2 57     0 LegendMM 100.43     LegendNANA

Notes on Data Quality.

Legend

  • E = Estimated
  • M = Missing
  • NA = Not Available*
  • [empty] = Indicates an unobserved value
Date modified: